[[{"header":{"parameterUnit":"m.s-1","parameterCategory":1,"la1":30.2991,"la2":30.254,"lo1":-89.0895,"lo2":-89.0444,"dy":0.0017,"dx":0.0017,"nx":28,"ny":28,"refTime":"2023-08-16T03:00:00:Z","depth":0,"parameterNumber":2,"parameterNumberName":"U-component_of_WINDS"},"data":[0,0,0,0,0,0,0,0,0,0,0,0,0,0,0,0,0,0,0,0,0,0,0,0,0,0,0,0,0,0,0,0,0,0,0,0,0,0,0,0,0,0,0,0,0,0,0,0,0,0,0,0,0,0,0,0,0,0,-0.7064,-0.7065,0,-0.7131,-0.7132,-0.7133,-0.7207,-0.7208,-0.7209,-0.721,-0.7276,-0.7277,-0.7278,0,0,0,0,0,0,0,0,0,0,0,0,0,-0.6998,-0.6998,-0.7064,-0.7065,-0.7066,-0.7131,-0.7132,-0.7133,-0.7207,-0.7208,-0.7209,-0.721,-0.7276,-0.7277,-0.7278,0,0,0,0,0,0,0,0,0,0,0,0,0,-0.7042,-0.6999,-0.7064,-0.711,-0.7115,-0.7131,-0.7132,-0.7133,-0.7206,-0.7208,-0.721,-0.7211,-0.7276,-0.7277,-0.7278,-0.7253,0,0,-0.7281,-0.7282,0,0,0,0,0,0,0,0,-0.7039,-0.7044,-0.7103,-0.7107,-0.7113,-0.7162,-0.7133,-0.7173,-0.7206,-0.7172,-0.721,-0.7212,-0.7237,-0.7241,-0.725,-0.7256,-0.7259,-0.7281,-0.7282,-0.7283,-0.7283,0,0,0,0,0,0,0,-0.7036,-0.7042,-0.7091,-0.7103,-0.711,-0.7127,-0.7135,-0.7141,-0.7194,-0.7175,-0.718,-0.7187,-0.724,-0.7249,-0.7252,-0.726,-0.7281,-0.7282,-0.7283,-0.7284,-0.7249,-0.7247,0,0,0,0,0,0,-0.7026,-0.7039,-0.7089,-0.7093,-0.7079,-0.7127,-0.7136,-0.7145,-0.7194,-0.7204,-0.7186,-0.7191,-0.7246,-0.7251,-0.7255,-0.7229,-0.7283,-0.7284,-0.7284,-0.725,-0.7248,-0.7247,0,0,0,0,0,0,-0.7024,-0.703,-0.7086,-0.7067,-0.7076,-0.7127,-0.7136,-0.7145,-0.7155,-0.7203,-0.7213,-0.7186,-0.7248,-0.7253,-0.7253,-0.7232,-0.7284,-0.7285,-0.7252,-0.725,-0.7247,-0.7176,0,0,0,0,0,0,-0.7022,-0.7029,-0.702,-0.7066,-0.7076,-0.7083,-0.7134,-0.7145,-0.7157,-0.7163,-0.7205,-0.7214,-0.7249,-0.7251,-0.7254,-0.7235,-0.7286,-0.7254,-0.7251,-0.7248,-0.718,-0.7172,-0.7164,0,0,0,0,0,-0.702,-0.6996,-0.7019,-0.7025,-0.7066,-0.7081,-0.7087,-0.713,-0.7155,-0.7146,-0.7177,-0.7212,-0.7234,-0.725,-0.7255,-0.7235,-0.7256,-0.7252,-0.7248,-0.7184,-0.7173,-0.7164,0,0,0,0,0,0,-0.6945,-0.7003,-0.7029,-0.702,-0.7046,-0.7094,-0.7084,-0.7117,-0.7134,-0.714,-0.7191,-0.72,-0.7193,-0.7215,-0.7231,-0.7214,-0.725,-0.7247,-0.72,-0.719,-0.7182,-0.7176,-0.7287,0,0,0,0,0,-0.6928,-0.6935,-0.6986,-0.6973,-0.6985,-0.7032,-0.704,-0.7071,-0.7099,-0.711,-0.7141,-0.7166,-0.7179,-0.7186,-0.72,-0.7185,-0.7195,-0.7174,-0.7165,-0.7158,-0.7154,-0.7148,-0.7139,-0.7235,-0.7235,-0.7235,0,0,-0.6891,-0.6924,-0.6926,-0.6959,-0.6982,-0.6989,-0.7041,-0.7045,-0.705,-0.711,-0.7112,-0.7136,-0.7167,-0.7159,-0.7157,-0.7177,-0.7131,-0.7153,-0.7147,-0.7148,-0.7143,-0.7134,-0.7126,-0.7232,-0.7233,-0.7233,0,0,-0.6829,-0.6855,-0.6847,-0.687,-0.6905,-0.6937,-0.6935,-0.6979,-0.6997,-0.7,-0.7045,-0.7052,-0.7073,-0.7094,-0.7107,-0.7054,-0.7087,-0.7057,-0.7013,-0.7006,-0.6999,-0.6992,-0.6973,-0.6965,-0.7054,-0.7054,-0.7054,0,-0.6779,-0.6791,-0.6839,-0.6841,-0.6855,-0.6911,-0.6903,-0.6923,-0.696,-0.6967,-0.6989,-0.7017,-0.7042,-0.704,-0.7027,-0.7036,-0.7035,-0.7052,-0.6996,-0.699,-0.6985,-0.6967,-0.6959,-0.705,-0.705,-0.7051,-0.7051,0,-0.6728,-0.6736,-0.6726,-0.6762,-0.6774,-0.6771,-0.6819,-0.6825,-0.6856,-0.6885,-0.6888,-0.692,-0.6942,-0.6944,-0.6973,-0.6946,-0.6957,-0.6987,-0.7024,-0.6971,-0.6955,-0.6949,-0.7044,-0.7046,-0.7047,-0.7048,0,0,-0.6618,-0.6682,-0.6677,-0.6695,-0.6738,-0.6745,-0.6745,-0.6768,-0.6772,-0.6797,-0.6798,-0.6815,-0.6843,-0.6858,-0.689,-0.6884,-0.684,-0.6915,-0.6916,-0.6899,-0.6812,-0.6788,-0.678,-0.6863,-0.6862,-0.6861,-0.6809,0,-0.6562,-0.6567,-0.661,-0.6602,-0.661,-0.6664,-0.6664,-0.6691,-0.6719,-0.6729,-0.676,-0.6771,-0.6808,-0.6817,-0.6814,-0.6846,-0.6823,-0.6851,-0.6863,-0.6863,-0.6852,-0.6772,-0.6747,-0.6696,-0.6803,-0.6802,-0.6802,0,-0.6497,-0.6519,-0.6511,-0.6556,-0.6561,-0.656,-0.6585,-0.6595,-0.6626,-0.6647,-0.6664,-0.6701,-0.6705,-0.6741,-0.6746,-0.6763,-0.6772,-0.6788,-0.6787,-0.6789,-0.6828,-0.677,-0.6681,-0.6673,-0.6792,-0.6793,-0.6794,0,-0.6417,-0.6444,-0.6443,-0.6457,-0.6509,-0.6507,-0.6529,-0.6562,-0.6573,-0.6595,-0.6602,-0.6624,-0.6635,-0.6651,-0.6693,-0.6715,-0.6692,-0.6732,-0.6709,-0.6708,-0.67,-0.67,-0.661,-0.6707,-0.6708,-0.6708,-0.6708,0,-0.6349,-0.6342,-0.6408,-0.6407,-0.6401,-0.6452,-0.6444,-0.6471,-0.6501,-0.6506,-0.6554,-0.6558,-0.6614,-0.6623,-0.6656,-0.6655,-0.666,-0.6677,-0.6685,-0.6671,-0.6669,-0.6676,-0.668,-0.6706,-0.6706,-0.6707,-0.6707,0,-0.6257,-0.6302,-0.6304,-0.6354,-0.6366,-0.636,-0.6402,-0.6403,-0.6435,-0.6441,-0.6446,-0.6495,-0.651,-0.6554,-0.6579,-0.6601,-0.6589,-0.6606,-0.6579,-0.6584,-0.6558,-0.656,-0.6469,-0.6459,-0.6563,-0.6562,-0.6561,0,-0.6211,-0.6207,-0.6257,-0.6264,-0.6284,-0.6295,-0.6307,-0.6358,-0.6368,-0.6404,-0.6401,-0.642,-0.6437,-0.6458,-0.6496,-0.6515,-0.6532,-0.6499,-0.6536,-0.6522,-0.6531,-0.653,-0.653,-0.6491,-0.6489,-0.6488,-0.6487,0,-0.6123,-0.6145,-0.6161,-0.6185,-0.6198,-0.6219,-0.6243,-0.6246,-0.6303,-0.6312,-0.6328,-0.6341,-0.6368,-0.6386,-0.6412,-0.6434,-0.6469,-0.6476,-0.6472,-0.6457,-0.6441,-0.6449,-0.6556,-0.6477,-0.6478,-0.6479,-0.648,-0.648,-0.6052,-0.6051,-0.6086,-0.6103,-0.6126,-0.6147,-0.6151,-0.6184,-0.6199,-0.6225,-0.6254,-0.6266,-0.6299,-0.6338,-0.6357,-0.6367,-0.6387,-0.638,-0.6379,-0.6376,-0.6369,-0.644,-0.6373,-0.6373,-0.6373,-0.6373,-0.6374,0,-0.5966,-0.5992,-0.6006,-0.6039,-0.6051,-0.6086,-0.6114,-0.6123,-0.6133,-0.6161,-0.6178,-0.6196,-0.6214,-0.6254,-0.6275,-0.6276,-0.6293,-0.628,-0.6279,-0.6284,-0.6351,-0.6352,-0.6266,-0.6266,-0.6266,-0.6266,-0.6266,-0.6266,-0.5923,-0.5923,-0.595,-0.5963,-0.5989,-0.6002,-0.6015,-0.6035,-0.6058,-0.6076,-0.6092,-0.6118,-0.6151,-0.6175,-0.6193,-0.6205,-0.621,-0.6191,-0.6207,-0.6269,-0.6279,-0.6289,-0.629,-0.6192,-0.6192,-0.6139,-0.6139,-0.6138]},{"header":{"parameterUnit":"m.s-1","parameterCategory":1,"la1":30.2991,"la2":30.254,"lo1":-89.0895,"lo2":-89.0444,"dy":0.0017,"dx":0.0017,"nx":28,"ny":28,"refTime":"2023-08-16T03:00:00:Z","depth":0,"parameterNumber":3,"parameterNumberName":"V-component_of_WINDS"},"data":[0,0,0,0,0,0,0,0,0,0,0,0,0,0,0,0,0,0,0,0,0,0,0,0,0,0,0,0,0,0,0,0,0,0,0,0,0,0,0,0,0,0,0,0,0,0,0,0,0,0,0,0,0,0,0,0,0,0,-0.281,-0.2811,0,-0.2929,-0.293,-0.2932,-0.3031,-0.3032,-0.3034,-0.3035,-0.3158,-0.3161,-0.3163,0,0,0,0,0,0,0,0,0,0,0,0,0,-0.2669,-0.2671,-0.2809,-0.2811,-0.2812,-0.2929,-0.2931,-0.2932,-0.3031,-0.3032,-0.3034,-0.3035,-0.3158,-0.316,-0.3163,0,0,0,0,0,0,0,0,0,0,0,0,0,-0.2753,-0.2672,-0.2809,-0.2876,-0.2883,-0.2929,-0.2931,-0.2933,-0.3031,-0.3033,-0.3034,-0.3036,-0.3157,-0.316,-0.3163,-0.3153,0,0,-0.3174,-0.3176,0,0,0,0,0,0,0,0,-0.2749,-0.2759,-0.2865,-0.2871,-0.2879,-0.2967,-0.2927,-0.3007,-0.3031,-0.2975,-0.3035,-0.3036,-0.3093,-0.3102,-0.3121,-0.3159,-0.3164,-0.3174,-0.3176,-0.3178,-0.3179,0,0,0,0,0,0,0,-0.2743,-0.2754,-0.2857,-0.2866,-0.2875,-0.2901,-0.2914,-0.2942,-0.3024,-0.298,-0.2987,-0.3,-0.3098,-0.3118,-0.3125,-0.3166,-0.3174,-0.3177,-0.3179,-0.3181,-0.3202,-0.32,0,0,0,0,0,0,-0.2726,-0.2748,-0.2853,-0.286,-0.2817,-0.2902,-0.2917,-0.2937,-0.3024,-0.3038,-0.2999,-0.3004,-0.3111,-0.3121,-0.313,-0.3123,-0.3178,-0.3181,-0.3183,-0.3203,-0.3201,-0.32,0,0,0,0,0,0,-0.2723,-0.2735,-0.2848,-0.2807,-0.2823,-0.2902,-0.2924,-0.2939,-0.2959,-0.3038,-0.3053,-0.3003,-0.3113,-0.3125,-0.3147,-0.3129,-0.3183,-0.3186,-0.3205,-0.3203,-0.3201,-0.3109,0,0,0,0,0,0,-0.2718,-0.2733,-0.2729,-0.2806,-0.2825,-0.2862,-0.2923,-0.294,-0.2964,-0.2973,-0.3047,-0.306,-0.3115,-0.3141,-0.315,-0.3134,-0.3189,-0.3207,-0.3204,-0.3201,-0.3114,-0.3104,-0.3095,0,0,0,0,0,-0.2713,-0.2699,-0.2728,-0.274,-0.2821,-0.2861,-0.2872,-0.2934,-0.2962,-0.2959,-0.3011,-0.3058,-0.3129,-0.3142,-0.3153,-0.3138,-0.3208,-0.3205,-0.3201,-0.3118,-0.3106,-0.3096,0,0,0,0,0,0,-0.2618,-0.271,-0.2744,-0.2754,-0.2798,-0.2877,-0.2876,-0.2919,-0.2957,-0.2964,-0.304,-0.3056,-0.3069,-0.3107,-0.3119,-0.3133,-0.3175,-0.3174,-0.3108,-0.3097,-0.3088,-0.3078,-0.3191,0,0,0,0,0,-0.2598,-0.2622,-0.2701,-0.2702,-0.2723,-0.2795,-0.2815,-0.2859,-0.2909,-0.2928,-0.2981,-0.3028,-0.3062,-0.3082,-0.3117,-0.3121,-0.3138,-0.3116,-0.3107,-0.3099,-0.3096,-0.3101,-0.3092,-0.3188,-0.3188,-0.3189,0,0,-0.2557,-0.2611,-0.2621,-0.2685,-0.2725,-0.2748,-0.2811,-0.2833,-0.2851,-0.2932,-0.2955,-0.2996,-0.3054,-0.3066,-0.3075,-0.3098,-0.3074,-0.3094,-0.3087,-0.3089,-0.3097,-0.3087,-0.3079,-0.3186,-0.3187,-0.3187,0,0,-0.2495,-0.2537,-0.2543,-0.2582,-0.2642,-0.269,-0.2691,-0.2764,-0.2794,-0.2819,-0.288,-0.2904,-0.2959,-0.2998,-0.3024,-0.2978,-0.3023,-0.2987,-0.2938,-0.2942,-0.2934,-0.2928,-0.291,-0.2903,-0.2985,-0.2984,-0.2984,0,-0.2436,-0.2473,-0.254,-0.2559,-0.2585,-0.266,-0.2666,-0.2701,-0.2769,-0.2786,-0.2811,-0.2883,-0.2927,-0.295,-0.2938,-0.2958,-0.2962,-0.2978,-0.293,-0.2924,-0.2919,-0.2903,-0.2897,-0.298,-0.298,-0.2981,-0.2981,0,-0.2399,-0.2423,-0.2421,-0.2484,-0.2511,-0.2523,-0.2593,-0.2611,-0.2654,-0.27,-0.2724,-0.278,-0.2828,-0.2837,-0.2878,-0.2866,-0.2878,-0.2915,-0.2959,-0.2904,-0.289,-0.2885,-0.2973,-0.2974,-0.2976,-0.2977,0,0,-0.2278,-0.2379,-0.2377,-0.2407,-0.2479,-0.2499,-0.2516,-0.2562,-0.2576,-0.2622,-0.2637,-0.2683,-0.2718,-0.2748,-0.2795,-0.2799,-0.2758,-0.2836,-0.2839,-0.2819,-0.2746,-0.2717,-0.2709,-0.2789,-0.2788,-0.2787,-0.2741,0,-0.2226,-0.2258,-0.232,-0.2332,-0.2356,-0.2429,-0.2443,-0.2489,-0.2532,-0.256,-0.2609,-0.2639,-0.2684,-0.2702,-0.2709,-0.2761,-0.2744,-0.2765,-0.2804,-0.2804,-0.2785,-0.2702,-0.2671,-0.2625,-0.2737,-0.2736,-0.2735,0,-0.2169,-0.221,-0.2224,-0.2295,-0.2308,-0.2319,-0.2367,-0.2392,-0.2446,-0.2478,-0.2512,-0.2563,-0.2585,-0.2626,-0.2657,-0.267,-0.269,-0.2717,-0.2717,-0.2722,-0.2765,-0.2703,-0.2612,-0.2604,-0.2728,-0.2728,-0.2729,0,-0.2079,-0.2137,-0.2153,-0.2177,-0.226,-0.2266,-0.2302,-0.2358,-0.2381,-0.2424,-0.244,-0.2484,-0.2508,-0.2541,-0.2604,-0.2627,-0.2628,-0.2673,-0.2654,-0.2652,-0.265,-0.2649,-0.2558,-0.2664,-0.2664,-0.2664,-0.2664,0,-0.2014,-0.202,-0.2114,-0.2123,-0.2133,-0.2204,-0.2212,-0.2254,-0.2303,-0.2323,-0.2389,-0.2406,-0.2488,-0.2515,-0.2565,-0.2583,-0.2593,-0.262,-0.2632,-0.2613,-0.2609,-0.2626,-0.263,-0.2663,-0.2663,-0.2663,-0.2664,0,-0.1913,-0.1976,-0.1999,-0.2076,-0.2096,-0.2099,-0.2166,-0.2178,-0.2227,-0.2251,-0.2261,-0.2336,-0.2372,-0.2438,-0.2492,-0.2525,-0.2532,-0.2555,-0.2513,-0.2521,-0.2498,-0.2498,-0.2414,-0.2406,-0.2517,-0.2516,-0.2515,0,-0.1867,-0.1873,-0.1951,-0.1969,-0.2001,-0.2029,-0.2054,-0.2125,-0.2148,-0.2211,-0.2216,-0.2257,-0.2293,-0.2346,-0.2406,-0.2448,-0.2472,-0.244,-0.2479,-0.2459,-0.2471,-0.2469,-0.2469,-0.243,-0.2428,-0.2427,-0.2426,0,-0.1777,-0.1808,-0.1841,-0.1885,-0.1912,-0.1951,-0.1992,-0.2003,-0.2084,-0.2107,-0.2144,-0.2172,-0.2228,-0.2267,-0.2318,-0.2355,-0.2404,-0.2414,-0.2411,-0.2391,-0.2365,-0.2378,-0.2488,-0.2415,-0.2416,-0.2417,-0.2417,-0.2418,-0.1702,-0.1711,-0.1767,-0.1801,-0.184,-0.1878,-0.1893,-0.1944,-0.1975,-0.2025,-0.2066,-0.21,-0.2155,-0.2228,-0.2263,-0.229,-0.2313,-0.231,-0.2309,-0.2307,-0.2298,-0.2362,-0.23,-0.23,-0.2301,-0.2301,-0.2301,0,-0.1615,-0.1655,-0.1686,-0.1742,-0.1769,-0.1813,-0.1862,-0.1882,-0.191,-0.1957,-0.1992,-0.2034,-0.2073,-0.2136,-0.218,-0.219,-0.2214,-0.2199,-0.2199,-0.2206,-0.2276,-0.2273,-0.218,-0.218,-0.218,-0.218,-0.218,-0.218,-0.1573,-0.159,-0.1628,-0.1665,-0.1706,-0.1739,-0.1762,-0.1798,-0.1836,-0.188,-0.1912,-0.1953,-0.2007,-0.2056,-0.2094,-0.2112,-0.2124,-0.2102,-0.2127,-0.219,-0.2201,-0.2212,-0.221,-0.2105,-0.2105,-0.2055,-0.2055,-0.2055]}]]